Weather reports worldwide

Advertisment
Olbia/Costa Smeralda, Italy (16531): temperature & dewpoint: 03.08.2020 22:00:00 - 09.08.2020 22:00:00 (CEST)Olbia/Costa Smeralda, Italy (16531): wind speed: 03.08.2020 22:00:00 - 09.08.2020 22:00:00 (CEST)Olbia/Costa Smeralda, Italy (16531): wind direction: 03.08.2020 22:00:00 - 09.08.2020 22:00:00 (CEST)Olbia/Costa Smeralda, Italy (16531): reduced air pressure: 03.08.2020 22:00:00 - 09.08.2020 22:00:00 (CEST)Olbia/Costa Smeralda, Italy (16531): visibility: 03.08.2020 22:00:00 - 09.08.2020 22:00:00 (CEST)Olbia/Costa Smeralda, Italy (16531): precipitation: 03.08.2020 22:00:00 - 09.08.2020 22:00:00 (CEST)
Date & Time tt [°C] td [°C] ff [km/h] ff [kn] dd ppp [hPa] vv [km] rr [mm]
09.08.2020 22:00:00 26,0 18,0 4 2 NE - 10 -
09.08.2020 21:00:00 28,0 16,0 9 5 NE - 10 -
09.08.2020 20:00:00 29,6 13,7 13 7 NE 1013,7 10 -
09.08.2020 19:00:00 33,0 13,0 13 7 ENE - 10 -
09.08.2020 18:00:00 33,0 13,0 16 9 ENE - 10 -
09.08.2020 17:00:00 32,3 13,2 18 10 NE 1014,2 10 0,0
09.08.2020 16:00:00 33,0 14,0 18 10 ENE - 10 -
09.08.2020 15:00:00 32,0 16,0 18 10 ENE - 10 -
09.08.2020 14:00:00 31,3 16,5 21 11 ENE 1015,4 10 -
09.08.2020 13:00:00 31,0 18,0 18 10 ENE - 10 -
09.08.2020 12:00:00 31,0 17,0 16 9 ENE - 10 -
09.08.2020 11:00:00 30,8 17,6 13 7 ENE 1016,1 10 0,0
09.08.2020 10:00:00 30,0 17,0 4 2 - - 10 -
09.08.2020 09:00:00 28,0 17,0 5 3 WSW - 10 -
09.08.2020 08:00:00 25,1 14,6 13 7 SW 1016,3 10 -
09.08.2020 07:00:00 22,0 14,0 15 8 WSW - 10 -
09.08.2020 06:00:00 23,0 14,0 9 5 WSW - 10 -
09.08.2020 05:00:00 23,5 14,5 15 8 SW 1015,7 10 0,0
09.08.2020 04:00:00 24,0 14,0 11 6 SW - 10 -
09.08.2020 03:00:00 24,0 15,0 13 7 WSW - 10 -
09.08.2020 02:00:00 25,9 14,1 9 5 W 1015,8 10 -
09.08.2020 01:00:00 26,0 14,0 11 6 W - 10 -
09.08.2020 00:00:00 26,0 15,0 11 6 W - 10 -
08.08.2020 23:00:00 26,6 14,7 13 7 WSW 1016,2 10 0,0
08.08.2020 22:00:00 28,0 14,0 8 4 W - 10 -
08.08.2020 21:00:00 29,0 14,0 9 5 W - 10 -
08.08.2020 20:00:00 30,7 14,3 18 10 WNW 1015,5 10 -
08.08.2020 19:00:00 33,0 14,0 21 11 NW - 10 -
08.08.2020 18:00:00 34,0 14,0 22 12 N - 10 -
08.08.2020 17:00:00 33,9 12,7 22 12 N 1015,6 10 0,0
08.08.2020 16:00:00 34,0 13,0 24 13 N - 10 -
08.08.2020 15:00:00 34,0 13,0 26 14 NNE - 10 -
08.08.2020 14:00:00 34,3 13,4 21 11 NNE 1016,5 10 -
08.08.2020 13:00:00 34,0 13,0 22 12 NNE - 10 -
08.08.2020 12:00:00 33,0 14,0 21 11 N - 10 -
08.08.2020 11:00:00 32,3 14,3 16 9 N 1017,5 10 0,0
08.08.2020 10:00:00 30,0 15,0 5 3 - - 10 -
08.08.2020 09:00:00 28,0 15,0 15 8 SW - 10 -
08.08.2020 08:00:00 25,0 14,1 18 10 WSW 1017,9 10 -
08.08.2020 07:00:00 22,0 14,0 11 6 SW - 10 -
08.08.2020 06:00:00 21,0 14,0 5 3 SW - 10 -
08.08.2020 05:00:00 21,0 12,9 4 2 - 1017,5 10 0,0
08.08.2020 04:00:00 22,0 13,0 5 3 WSW - 10 -
08.08.2020 03:00:00 23,0 12,0 5 3 W - 10 -
08.08.2020 02:00:00 21,7 12,6 4 2 - 1017,4 10 -
08.08.2020 01:00:00 22,0 13,0 2 1 SSE - 10 -
08.08.2020 00:00:00 24,0 13,0 5 3 WSW - 10 -
07.08.2020 23:00:00 23,4 13,3 11 6 SW 1017,6 10 0,0
07.08.2020 22:00:00 25,0 15,0 5 3 SW - 10 -
07.08.2020 21:00:00 27,0 16,0 5 3 SSW - 10 -
07.08.2020 20:00:00 29,1 15,2 8 4 E 1016,4 10 -
07.08.2020 19:00:00 30,0 13,0 18 10 NE - 10 -
07.08.2020 18:00:00 29,0 18,0 22 12 ENE - 10 -
07.08.2020 17:00:00 30,1 16,9 16 9 E 1016,4 10 0,0
07.08.2020 16:00:00 30,0 15,0 18 10 ENE - 10 -
07.08.2020 15:00:00 30,0 15,0 21 11 ENE - 10 -
07.08.2020 14:00:00 30,5 16,2 21 11 ENE 1016,8 10 -
07.08.2020 13:00:00 30,0 14,0 21 11 NNE - 10 -
07.08.2020 12:00:00 29,0 17,0 24 13 NNE - 10 -
07.08.2020 11:00:00 29,0 16,4 24 13 NNE 1017,4 10 0,0
07.08.2020 10:00:00 29,0 17,0 26 14 NNE - 10 -
07.08.2020 09:00:00 27,0 17,0 15 8 NNE - 10 -
07.08.2020 08:00:00 25,1 17,6 9 5 WSW 1017,1 10 -
07.08.2020 07:00:00 21,0 15,0 4 2 - - 10 -
07.08.2020 06:00:00 21,0 16,0 11 6 WSW - 10 -
07.08.2020 05:00:00 21,5 15,3 8 4 WSW 1016,1 10 0,0
07.08.2020 04:00:00 23,0 16,0 9 5 WSW - 10 -
07.08.2020 03:00:00 24,0 17,0 15 8 SW - 10 -
07.08.2020 02:00:00 22,8 16,3 5 3 W 1016,3 10 -
07.08.2020 01:00:00 22,0 15,0 2 1 - - 10 -
07.08.2020 00:00:00 23,0 15,0 4 2 - - 10 -
06.08.2020 23:00:00 24,8 15,2 4 2 - 1016,3 10 0,0
06.08.2020 22:00:00 27,0 15,0 8 4 NW - 10 -
06.08.2020 21:00:00 28,0 15,0 11 6 NNW - 10 -
06.08.2020 20:00:00 28,8 13,9 16 9 N 1015,0 10 -
06.08.2020 19:00:00 30,0 13,0 16 9 N - 10 -
06.08.2020 18:00:00 30,0 13,0 21 11 N - 10 -
06.08.2020 17:00:00 30,0 12,7 21 11 N 1014,8 10 0,0
06.08.2020 16:00:00 30,0 14,0 22 12 NNE - 10 -
06.08.2020 15:00:00 30,0 14,0 26 14 N - 10 -
06.08.2020 14:00:00 29,7 14,7 24 13 NNE 1015,1 10 -
06.08.2020 13:00:00 29,0 14,0 24 13 NNE - 10 -
06.08.2020 12:00:00 29,0 13,0 24 13 NNE - 10 -
06.08.2020 11:00:00 28,1 13,6 16 9 N 1015,3 10 0,0
06.08.2020 10:00:00 27,0 14,0 18 10 NNW - 10 -
06.08.2020 09:00:00 26,0 16,0 11 6 N - 10 -
06.08.2020 08:00:00 22,4 14,8 11 6 WSW 1014,5 10 -
06.08.2020 07:00:00 19,0 14,0 8 4 WSW - 10 -
06.08.2020 06:00:00 19,0 13,0 9 5 WSW - 10 -
06.08.2020 05:00:00 19,7 13,2 11 6 WSW 1013,7 10 0,0
06.08.2020 04:00:00 20,0 13,0 11 6 SW - 10 -
06.08.2020 03:00:00 21,0 13,0 9 5 W - 10 -
06.08.2020 02:00:00 20,5 13,3 8 4 SW 1013,6 10 -
06.08.2020 01:00:00 21,0 14,0 4 2 - - 10 -
06.08.2020 00:00:00 22,0 14,0 9 5 SW - 10 -
05.08.2020 23:00:00 24,1 14,3 9 5 WNW 1013,3 10 0,0
05.08.2020 22:00:00 26,0 13,0 5 3 NW - 10 -
05.08.2020 21:00:00 26,0 13,0 9 5 NW - 10 -
05.08.2020 20:00:00 27,0 11,2 16 9 N 1011,7 10 -
05.08.2020 19:00:00 28,0 13,0 22 12 NNE - 10 -
05.08.2020 18:00:00 29,0 15,0 15 8 N - 10 -
05.08.2020 17:00:00 28,7 14,4 28 15 N 1010,6 10 0,0
05.08.2020 16:00:00 30,0 14,0 28 15 N - 10 -
05.08.2020 15:00:00 30,0 15,0 26 14 N - 10 -
05.08.2020 14:00:00 30,8 14,4 24 13 NNE 1010,4 10 -
05.08.2020 13:00:00 30,0 12,0 13 7 - - 10 -
05.08.2020 12:00:00 30,0 11,0 15 8 NNW - 10 -
05.08.2020 11:00:00 28,6 11,5 11 6 N 1010,8 10 0,0
05.08.2020 10:00:00 27,0 14,0 24 13 SW - 10 -
05.08.2020 09:00:00 25,0 15,0 28 15 WSW - 10 -
05.08.2020 08:00:00 22,4 14,5 29 16 WSW 1010,4 10 -
05.08.2020 07:00:00 21,0 14,0 31 17 SW - 10 -
05.08.2020 06:00:00 21,0 14,0 26 14 WSW - 10 -
05.08.2020 05:00:00 21,3 13,7 26 14 WSW 1009,4 10 0,0
05.08.2020 04:00:00 22,0 14,0 26 14 SW - 10 -
05.08.2020 03:00:00 22,0 14,0 26 14 WSW - 10 -
05.08.2020 02:00:00 22,3 13,6 18 10 WSW 1010,0 10 -
05.08.2020 01:00:00 23,0 13,0 13 7 WSW - 10 -
05.08.2020 00:00:00 23,0 12,0 22 12 WSW - 10 -
04.08.2020 23:00:00 23,0 12,6 26 14 WSW 1009,8 10 0,0
04.08.2020 22:00:00 23,0 12,0 28 15 WSW - 10 -
04.08.2020 21:00:00 24,0 11,0 18 10 W - 10 -
04.08.2020 20:00:00 24,8 11,5 26 14 WSW 1008,8 10 -
04.08.2020 19:00:00 26,0 11,0 35 19 W - 10 -
04.08.2020 18:00:00 26,0 11,0 41 22 W - 10 -
04.08.2020 17:00:00 26,3 10,8 35 19 W 1008,6 10 0,0
04.08.2020 16:00:00 28,0 9,0 52 28 WSW - 10 -
04.08.2020 15:00:00 28,0 10,0 54 29 W - 10 -
04.08.2020 14:00:00 28,0 8,3 52 28 WSW 1007,9 10 -
04.08.2020 13:00:00 28,0 9,0 41 22 W - 10 -
04.08.2020 12:00:00 27,0 9,0 46 25 W - 10 -
04.08.2020 11:00:00 26,5 8,8 37 20 W 1008,3 10 0,0
04.08.2020 10:00:00 26,0 8,0 48 26 W - 10 -
04.08.2020 09:00:00 26,0 8,0 39 21 W - 10 -
04.08.2020 08:00:00 25,0 8,7 29 16 WSW 1007,1 10 -
04.08.2020 07:00:00 24,0 11,0 21 11 SW - 10 -
04.08.2020 06:00:00 24,0 10,0 29 16 WSW - 10 -
04.08.2020 05:00:00 24,1 11,0 21 11 WSW 1007,4 10 0,0
04.08.2020 04:00:00 24,0 14,0 13 7 SSW - 10 -
04.08.2020 03:00:00 24,0 16,0 24 13 SW - 10 -
04.08.2020 02:00:00 23,7 14,9 28 15 SW 1008,4 10 -
04.08.2020 01:00:00 24,0 15,0 29 16 SW - 10 -
04.08.2020 00:00:00 24,0 15,0 35 19 WSW - 10 -
03.08.2020 23:00:00 24,7 15,2 29 16 W 1009,0 10 0,0
03.08.2020 22:00:00 26,0 14,0 24 13 W - 10 -

tt = temperature
td = dewpoint
ff = wind speed
dd = wind direction
ppp = reduced air pressure
vv = visibility
rr = precipitation

Next stations